Location: Castrojimeno
(41.3966°N, 3.8473°W)
Time: 13:44:00
(UTC+00:00)

Cosmos 1452 Rocket - Pass Details

Date: 15 May 2026
Orbit: 763 x 770 km, 74.1° (Epoch: 11 June)

Event Time Altitude Azimuth Distance (km) Brightness Sun altitude
Rises 20:00:10 0° 205° (SSW) 3,211 6.6 -6.2°
Reaches altitude 10° 20:02:32 10° 208° (SSW) 2,289 5.9 -6.5°
Maximum altitude 20:07:42 68° 291° (WNW) 821 4.0 -7.4°
Drops below altitude 10° 20:12:55 10° 15° (NNE) 2,306 6.3 -8.2°
Sets 20:15:19 0° 18° (NNE) 3,237 7.0 -8.5°
